ACA59 EDDH-EDDP

Flight info

Callsign ACA59
Flight time N/A
Altitude 24000
Route AMLUH2G/33 AMLUH M852 POVEL L986 MAG SONDU
Aircraft A339/H-VGD/A

Departure

Time 2026-04-30 20:55
Airport Hamburg Helmut Schmidt Airport (EDDH)

Arrival

Time N/A
Airport Leipzig/Halle Airport (EDDP)
Time Latitude Longitude Altitude Speed Heading
2026-04-30 20:32 53.62833 9.99097 45 ft 0 kts 63°
2026-04-30 20:38 53.62832 9.99091 45 ft 3 kts 63°
2026-04-30 20:38 53.62822 9.99057 46 ft 3 kts 63°
2026-04-30 20:39 53.62799 9.98980 47 ft 3 kts 63°
2026-04-30 20:39 53.62788 9.98947 48 ft 2 kts 56°
2026-04-30 20:39 53.62776 9.98931 49 ft 1 kts 22°
2026-04-30 20:40 53.62776 9.98933 48 ft 0 kts 34°
2026-04-30 20:40 53.62785 9.98954 48 ft 1 kts 68°
2026-04-30 20:40 53.62781 9.98969 48 ft 1 kts 139°
2026-04-30 20:41 53.62772 9.98975 48 ft 0 kts 150°
2026-04-30 20:43 53.62772 9.98976 48 ft 0 kts 151°
2026-04-30 20:43 53.62767 9.98980 48 ft 1 kts 151°
2026-04-30 20:43 53.62766 9.98981 48 ft 1 kts 151°
2026-04-30 20:44 53.62763 9.98984 48 ft 1 kts 151°
2026-04-30 20:44 53.62734 9.99012 49 ft 7 kts 150°
2026-04-30 20:44 53.62638 9.99100 51 ft 7 kts 152°
2026-04-30 20:45 53.62585 9.99213 52 ft 8 kts 97°
2026-04-30 20:45 53.62591 9.99335 50 ft 12 kts 83°
2026-04-30 20:45 53.62608 9.99482 49 ft 12 kts 80°
2026-04-30 20:46 53.62625 9.99642 48 ft 0 kts 80°
2026-04-30 20:50 53.62625 9.99643 48 ft 0 kts 80°
2026-04-30 20:50 53.62632 9.99708 48 ft 8 kts 80°
2026-04-30 20:50 53.62654 9.99802 47 ft 9 kts 43°
2026-04-30 20:51 53.62711 9.99858 46 ft 8 kts
2026-04-30 20:51 53.62769 9.99829 43 ft 2 kts 337°
2026-04-30 20:51 53.62799 9.99808 42 ft 7 kts 337°
2026-04-30 20:52 53.62825 9.99789 41 ft 0 kts 333°
2026-04-30 20:54 53.63048 9.99593 38 ft 77 kts 333°
2026-04-30 20:54 53.63748 9.98986 44 ft 147 kts 334°
2026-04-30 20:54 53.64780 9.98108 381 ft 178 kts 335°
2026-04-30 20:55 53.66922 9.96293 2075 ft 172 kts 335°
2026-04-30 20:55 53.68020 9.95338 2503 ft 186 kts 336°
2026-04-30 20:55 53.69285 9.94680 2872 ft 200 kts 356°
2026-04-30 20:56 53.72256 9.94858 3741 ft 228 kts 25°
2026-04-30 20:56 53.73467 9.96489 4431 ft 226 kts 60°
2026-04-30 20:56 53.74154 10.01447 5007 ft 212 kts 84°
2026-04-30 20:57 53.74043 10.03885 4994 ft 212 kts 107°
2026-04-30 20:57 53.73399 10.06145 5023 ft 214 kts 117°
2026-04-30 20:57 53.72651 10.08341 5143 ft 225 kts 117°
2026-04-30 20:58 53.70970 10.13285 5977 ft 258 kts 117°
2026-04-30 20:58 53.70076 10.15935 6729 ft 262 kts 117°
2026-04-30 20:58 53.69161 10.18581 7484 ft 265 kts 122°
2026-04-30 20:58 53.67797 10.20693 8165 ft 276 kts 148°
2026-04-30 20:59 53.64080 10.22616 9577 ft 287 kts 161°
2026-04-30 20:59 53.62149 10.23469 10130 ft 290 kts 161°
2026-04-30 21:00 53.58226 10.25235 10464 ft 291 kts 160°
2026-04-30 21:00 53.54298 10.27026 10507 ft 294 kts 160°